Regional Weather Roundup
Issued by NWS

Home | Current Version | Previous Version | Graphics & Text | Print | Product List | Glossary On
Versions: 1 2 3 4 5 6 7 8 9 10 11 12 13 14 15 16 17 18 19 20 21 22 23 24 25 26 27 28 29 30 31 32 33 34 35 36 37 38 39 40 41 42 43 44 45 46 47 48 49 50
000
ASUS45 KBOU 292110
RWRCO

WEATHER ROUNDUP FOR COLORADO
NATIONAL WEATHER SERVICE PUEBLO CO
300 PM MDT WED JUL 29 2015

NOTE: "FAIR" INDICATES FEW OR NO CLOUDS BELOW 12000 FEET WITH NO
SIGNIFICANT WEATHER AND/OR OBSTRUCTIONS TO VISIBILITY.

COZ001>005-013-030-031-292200-
...NORTHWEST COLORADO...

CITY           SKY/WX    TMP DP  RH WIND       PRES   REMARKS
CRAIG          SUNNY     86  24  10 W9        30.33F
HAYDEN         SUNNY     81  25  12 NW9       30.35F
MEEKER         SUNNY     84  23  10 SW12      30.34F
MOUNT WERNER   NOT AVBL
STEAMBOAT SPGS FAIR      78  28  16 W12G18    30.37F
WALDEN         FAIR      75  19  12 W13G18    30.45F
$$

COZ006>008-011-292200-
...WEST CENTRAL VALLEYS...

CITY           SKY/WX    TMP DP  RH WIND       PRES   REMARKS
GRAND JUNCTION MOSUNNY   89  26  10 NW9       30.20F
MONTROSE       SUNNY     89  29  11 N15       30.27F
EAGLE          MOSUNNY   84  27  12 SW21      30.32F
RIFLE          MOSUNNY   89  26  10 N8        30.24F
DELTA          NOT AVBL
NUCLA          FAIR      90  27  10 N6        30.30F
$$

COZ017>023-064>068-292200-
...SOUTHWEST COLORADO...

CITY           SKY/WX    TMP DP  RH WIND       PRES   REMARKS
DURANGO        LGT RAIN  76  44  32 SW15G24   30.36R
CORTEZ         CLOUDY    83  33  16 SW5       30.27S
PAGOSA SPRINGS CLOUDY    76  39  26 SW8       30.42F
TELLURIDE      MOSUNNY   76  24  14 W10G18    30.53F
WOLF CREEK PAS NOT AVBL
$$

COZ009-010-012-014-032>034-037-058>063-292200-
...CENTRAL COLORADO...

CITY           SKY/WX    TMP DP  RH WIND       PRES   REMARKS
ASPEN          SUNNY     79  34  19 MISG      30.40F
BUENA VISTA    FAIR      81  36  20 S9G22     30.38F
COPPER MTN     PTSUNNY   64  28  25 W20G26    30.75S
BERTHOUD PASS  PTSUNNY   54  43  66 MISG      30.79F
COTTONWOOD PAS PTSUNNY   72  37  28 E16G22    30.54F
GUNNISON       SUNNY     81  32  17 N3        30.40F
KREMMLING      MOSUNNY   81  19  10 NW7       30.38F
LEADVILLE      SUNNY     71  28  20 NW13G23   30.54F
MONARCH PASS   NOT AVBL
SALIDA         FAIR      79  48  33 SE21G30   30.44F
NIWOT RIDGE    NOT AVBL
SUNLIGHT       MOSUNNY   68  36  30 W5        30.68F
WILKERSON PASS SUNNY     70  39  32 SW6       30.68F
$$

COZ069>075-292200-
...SAN LUIS VALLEY/SANGRE DE CRISTO MOUNTAINS...

CITY           SKY/WX    TMP DP  RH WIND       PRES   REMARKS
ALAMOSA        PTSUNNY   78  41  26 SW8G18    30.39S
LA VETA PASS   PTSUNNY   59  46  63 MISG      30.62F
SAGUACHE       PTSUNNY   79  46  31 S5        30.40F
$$

COZ035-036-038>040-292200-
...NORTHERN COLORADO FRONT RANGE...

CITY           SKY/WX    TMP DP  RH WIND       PRES   REMARKS
DENVER INTL AP MOSUNNY   84  48  28 SE22G29   30.27R
DMNS CITY PARK NOT AVBL
AURORA         MOSUNNY   82  50  32 SE17G25   30.28F
FRONT RANGE AP MOSUNNY   82  46  28 SE21G31   30.29F
ERIE MUNI ARPT FAIR      86  46  24 CALM      30.23F
BOULDER MUN AP FAIR      82  46  28 NE7       30.24F
CENTENNIAL     MOSUNNY   80  50  34 S23G30    30.29F
BROOMFIELD     MOSUNNY   86  50  28 SE12G17   30.28S
LOVELAND       SUNNY     82  52  34 NW7       30.24F
LONGMONT       FAIR      86  47  25 NW5       30.25F
$$

COZ041-046-047-076>085-087-088-292200-
...PIKES PEAK/PALMER DIVIDE AND SOUTHERN FOOTHILLS...

CITY           SKY/WX    TMP DP  RH WIND       PRES   REMARKS
COLO. SPRINGS  MOSUNNY   77  49  37 S9        30.38F
A. F. ACADEMY  MOSUNNY   74  50  42 S17G24    30.38F
ELLICOTT       FAIR     N/A N/A N/A S12G18    30.37F
FALCON         FAIR      72  49  42 S18G24    30.43F
FORT CARSON    MOSUNNY   77  51  39 S12G18    30.34F
LIMON          SUNNY     77  45  32 SE20G26   30.34F
MONUMENT HILL  NOT AVBL
TRINIDAD       LGT RAIN  69  58  67 SW18      30.35R
$$

COZ042>045-048>051-090-091-292200-
...NORTHEAST COLORADO...

CITY           SKY/WX    TMP DP  RH WIND       PRES   REMARKS
GREELEY ARPT   SUNNY     88  48  25 SE14G20   30.24F
AKRON          SUNNY     80  48  32 SE22G31   30.30F
BURLINGTON     SUNNY     80  43  26 SE10G21   30.31F
WRAY           FAIR      85  43  22 SE14G23   30.27F
STERLING       FAIR      84  46  26 S13G24    30.25F
HOLYOKE        FAIR      84  48  28 S15G23    30.27F
FORT MORGAN    FAIR      83  49  30 S13G21    30.28F
$$

COZ086-089-092>099-292200-
...SOUTHEAST COLORADO...

CITY           SKY/WX    TMP DP  RH WIND       PRES   REMARKS
PUEBLO         SUNNY     89  48  24 SE12G23   30.26F
LA JUNTA       SUNNY     86  47  25 SE12      30.26F
LAMAR          SUNNY     85  48  27 E12       30.23F
SPRINGFIELD      N/A     80  52  37 SE8       30.28F
$$



USA.gov is the U.S. government's official web portal to all federal, state and local government web resources and services.